Location: Llanfachraeth
(53.3167°N, 4.5333°W)
Time: 04:36:14
(UTC+00:00)

Daily predictions for brighter satellites

Satellite Brightness Start Highest point End
(mag) Time Altitude Azimuth Time Altitude Azimuth Time Altitude Azimuth
Cosmos 2369 Rocket 4.4 02:38:57 22° NNE 02:38:57 22° NNE 02:43:08 10° E
SL-16 R/B 4.5 02:43:30 19° NNE 02:43:30 19° NNE 02:45:13 10° NNE
ATLAS 2AS CENTAUR R/B 3.9 02:43:18 41° N 02:43:18 41° N 02:49:44 10° ENE
CZ-4C R/B 4.2 02:49:28 23° ENE 02:49:28 23° ENE 02:52:10 10° NE
Cosmos 2344 4.3 02:49:19 49° N 02:49:19 49° N 02:58:11 10° ENE
ADEOS II 4.4 02:46:04 10° NNE 02:47:33 19° NNE 02:47:33 19° NNE
Cosmos 2333 Rocket 3.9 03:07:47 29° NNE 03:07:47 29° NNE 03:10:29 10° NNE
Resurs 1-4 Rocket 4.5 03:00:49 10° N 03:01:54 16° N 03:01:54 16° N
Cosmos 2322 Rocket 4.2 03:26:48 21° N 03:26:48 21° N 03:29:26 10° NNE
Cosmos 2237 Rocket 3.2 03:34:18 42° NE 03:34:18 42° NE 03:38:06 10° NE
USA 215 3.4 03:32:43 10° ENE 03:38:28 66° E 03:38:28 66° E
Cosmos 2219 Rocket 3.4 03:42:44 35° N 03:42:44 35° N 03:46:08 10° NNE
ATLAS CENTAUR R/B 3.6 03:49:20 26° E 03:49:20 26° E 03:51:48 10° ENE
Cosmos 2360 Rocket 3.9 03:55:08 23° N 03:55:08 23° N 03:58:19 10° NNE
Cosmos 1943 Rocket 2.8 03:55:25 52° NE 03:55:40 52° NE 04:01:03 10° SE
NOSS 0 Rocket 4.1 03:56:43 65° NNE 03:56:43 65° NNE 04:02:03 10° NNE
MSX 4.5 03:50:59 10° NNE 03:56:35 51° E 03:57:22 47° SE
NOSS 3-1 (A) 4.2 04:01:46 57° S 04:01:46 57° S 04:08:39 10° SSE
Cosmos 1980 Rocket 4.5 04:01:32 12° NNW 04:02:39 13° N 04:05:15 10° NNE
COSMOS 2428 3.7 04:04:37 37° N 04:04:37 37° N 04:08:36 10° NNE
CZ-2D R/B 4.4 04:00:50 10° N 04:01:45 13° NNW 04:01:45 13° NNW
Cosmos 1535 Rocket 4.4 03:58:15 10° N 04:04:34 80° ENE 04:04:52 78° ESE
SL-16 R/B 2.7 04:15:01 50° SE 04:15:50 55° ESE 04:21:23 10° NE
Cosmos 1980 3.9 04:23:06 57° NNW 04:23:06 57° NNW 04:28:04 10° NNE
Cosmos 2369 Rocket 2.5 04:20:47 27° NNW 04:23:57 65° NE 04:29:38 10° SE
SL-16 R/B 4.2 04:25:21 15° NNW 04:25:55 15° NNW 04:29:14 10° NNE
ADEOS II 3.8 04:26:19 10° N 04:28:30 20° NNW 04:28:30 20° NNW
NOSS 2-1 (D) 4.5 04:34:39 38° E 04:34:39 38° E 04:37:26 10° NE
Lacrosse 5 2.6 04:36:01 42° SSE 04:36:01 42° SSE 04:39:33 10° SE
CZ-4C R/B 2.3 04:34:38 63° NW 04:34:52 63° NW 04:41:21 10° NE
IDEFIX/ARIANE 42P 2.8 04:29:43 10° N 04:34:08 56° NNW 04:34:08 56° NNW
ATLAS 2AS CENTAUR R/B 3.9 04:30:43 23° NW 04:35:12 42° NNE 04:42:14 10° E
PAYLOAD A 4.1 04:30:45 10° NNE 04:35:37 70° ESE 04:36:42 52° SSE
Cosmos 2251 Rocket 3.7 04:36:06 55° S 04:37:07 71° ESE 04:42:25 10° NNE
Cosmos 1934 Rocket 3.9 04:30:55 10° NNW 04:37:08 65° W 04:37:35 63° WSW
PSLV R/B 4.5 04:37:21 10° NNE 04:40:04 39° N 04:40:04 39° N
COSMO-SKYMED 1 3.7 04:39:48 10° SE 04:43:53 43° ENE 04:48:01 10° N
Resurs 1-4 Rocket 4.4 04:42:45 10° NNW 04:42:59 10° NNW 04:42:59 10° NNW
Meteor 2-3 Rocket 3.7 04:41:42 10° NNW 04:47:30 84° ENE 04:53:18 10° SSE
CZ-2C R/B 2.6 04:42:27 10° NNE 04:47:41 76° ESE 04:50:10 31° S
Cosmos 2221 3.9 04:43:54 10° SSE 04:47:50 37° E 04:51:50 10° NNE
Cosmos 2333 Rocket 3.4 04:49:47 27° NW 04:49:47 27° NW 04:54:35 10° NNE
Cosmos-2242 4.2 04:54:23 31° NNW 04:54:23 31° NNW 04:56:51 10° N
SJ-6F 4.5 04:50:33 10° NNE 04:54:42 75° ESE 04:55:16 62° SSE
ALOS 4.2 04:51:12 10° NNE 04:55:20 30° E 04:59:26 10° SSE
Cosmos 1484 Rocket 4.3 04:51:53 10° NNE 04:55:35 37° E 04:59:17 10° SSE
Cosmos 1605 Rocket 3.9 04:55:08 10° NNW 05:01:20 64° W 05:07:23 10° S
STARLINK-1129 3.6 05:05:59 55° E 05:05:59 55° E 05:08:38 10° E
ADEOS 3.5 05:01:42 10° NNE 05:06:53 64° WNW 05:08:26 43° SW
Cosmos 1455 4.0 05:09:29 19° NNW 05:09:29 19° NNW 05:10:50 10° N
STARLINK-1134 3.5 05:07:53 58° E 05:07:53 58° E 05:10:36 10° E
ARIANE 5 R/B 4.3 05:06:22 10° N 05:08:15 16° NNW 05:08:15 16° NNW
STARLINK-1135 3.4 05:10:10 63° E 05:10:10 63° E 05:12:58 10° E
Cosmos 2322 Rocket 4.4 05:08:36 11° NNW 05:10:59 14° N 05:13:47 10° NNE
STARLINK-1141 3.2 05:12:25 67° E 05:12:25 67° E 05:15:19 10° E
STARLINK-1140 3.1 05:14:30 72° E 05:14:30 72° E 05:17:30 10° E
Spot 2 3.8 05:11:49 10° NNE 05:15:52 70° WNW 05:16:46 51° SW
Cosmos 1153 Rocket 4.3 05:10:05 10° NNW 05:16:14 73° W 05:22:20 10° S
STARLINK-1156 3.0 05:16:43 77° ESE 05:16:43 77° ESE 05:19:49 10° E
Cosmos 2237 Rocket 2.9 05:16:08 32° WNW 05:16:58 34° NW 05:22:06 10° NNE
Aureole 2 Rocket 3.5 05:20:04 30° SSE 05:20:04 30° SSE 05:21:48 10° SSE
STARLINK-1148 2.9 05:18:49 83° ESE 05:18:49 83° ESE 05:22:00 10° E
Cosmos 407 Rocket 4.5 05:14:37 10° S 05:19:42 49° ESE 05:24:48 10° NE
CZ-4B R/B 2.7 05:16:00 10° NNE 05:19:45 74° ESE 05:22:18 18° S
NOSS 2-1 (E) 2.9 05:20:17 66° WSW 05:20:42 78° NW 05:24:48 10° NE
Meteor 1-27 4.3 05:15:19 10° S 05:20:51 78° E 05:26:27 10° NNE
STARLINK-1158 2.9 05:21:02 87° SSE 05:21:02 87° SSE 05:24:17 10° E
USA 215 3.3 05:15:49 10° ENE 05:22:20 70° N 05:25:50 30° W
Meteor 2-10 Rocket 3.7 05:21:39 38° WSW 05:23:07 48° WNW 05:28:07 10° N
Meteor 1-31 Rocket 2.6 05:20:05 10° NNE 05:23:55 80° WNW 05:25:46 29° SSW
Cosmos 2219 Rocket 3.7 05:24:27 19° NW 05:25:44 20° NNW 05:29:51 10° NNE
Cosmos 1805 Rocket 3.9 05:21:41 10° N 05:26:02 67° ENE 05:30:20 10° SSE
ATLAS CENTAUR R/B 1.7 05:25:33 43° W 05:26:38 55° NW 05:30:55 10° NE
NOSS 2-2 (E) 4.5 05:22:50 21° NW 05:26:43 84° NE 05:34:13 10° SE
Sich 1 3.8 05:24:05 10° N 05:28:17 52° ENE 05:32:30 10° SSE
SKYMED 2 3.4 05:27:35 10° S 05:31:56 73° WSW 05:36:18 10° NNW
Cosmos 1727 Rocket 3.9 05:27:13 10° SSW 05:33:25 78° WNW 05:39:38 10° N
Cosmos 1500 Rocket 3.6 05:29:06 10° NNW 05:33:28 54° W 05:37:45 10° S
Cosmos 2173 Rocket 3.9 05:30:03 10° NNW 05:36:24 85° W 05:42:38 10° S
H-2A R/B 2.5 05:33:38 10° N 05:37:58 67° WNW 05:42:24 10° SSW
MSX 4.4 05:33:01 10° N 05:38:11 36° WNW 05:40:26 26° WSW
STARLINK-1153 2.5 05:38:52 67° W 05:39:11 84° S 05:42:07 10° E
Cosmos 1943 Rocket 2.7 05:37:01 25° WNW 05:39:16 35° WSW 05:44:12 10° S
STARLINK-1180 2.5 05:39:02 67° W 05:39:23 84° S 05:42:19 10° E
Cosmos 2360 Rocket 4.3 05:36:54 10° NW 05:39:40 14° N 05:42:27 10° NNE
STARLINK-1174 2.5 05:39:30 66° W 05:39:51 84° S 05:42:47 10° E
STARLINK-1139 2.5 05:39:43 65° W 05:40:04 84° S 05:43:00 10° E
STARLINK-1133 2.5 05:39:56 65° W 05:40:18 84° S 05:43:14 10° E
STARLINK-1151 2.5 05:40:10 64° W 05:40:33 84° S 05:43:29 10° E
Cosmos 1356 Rocket 3.9 05:40:05 35° W 05:40:38 37° WNW 05:44:30 10° N
STARLINK-1160 2.6 05:40:48 63° W 05:41:12 83° S 05:44:07 10° E
STARLINK-1161 2.6 05:41:00 62° W 05:41:24 83° S 05:44:20 10° E
STARLINK-1145 2.6 05:41:14 62° W 05:41:39 83° S 05:44:35 10° E
STARLINK-1172 2.6 05:41:26 61° W 05:41:52 83° S 05:44:47 10° E
STARLINK-1182 2.6 05:41:53 60° W 05:42:19 83° S 05:45:15 10° E
STARLINK-1164 2.6 05:42:04 60° W 05:42:31 83° S 05:45:28 10° E
STARLINK-1168 2.6 05:42:18 60° W 05:42:45 83° S 05:45:41 10° E
STARLINK-1183 2.6 05:42:57 58° W 05:43:26 83° S 05:46:21 10° E
STARLINK-1181 2.6 05:43:09 58° W 05:43:38 83° S 05:46:35 10° E
Cosmos 1190 Rocket 4.5 05:38:29 10° S 05:43:41 64° ESE 05:48:58 10° NNE
Cosmos 614 Rocket 4.1 05:38:41 10° SSW 05:43:51 80° ESE 05:49:05 10° NNE
STARLINK-1149 2.4 05:43:41 66° WSW 05:43:59 80° S 05:46:43 10° E
Okean O Rocket 3.2 05:40:13 10° NNE 05:44:19 37° E 05:48:21 10° SSE
STARLINK-1196 2.6 05:43:49 56° W 05:44:21 83° S 05:47:17 10° E
STARLINK-1186 2.6 05:44:16 55° W 05:44:47 82° S 05:47:44 10° E
STARLINK-1185 2.6 05:44:28 55° W 05:45:01 82° S 05:47:57 10° E
STARLINK-1175 2.6 05:44:40 55° W 05:45:13 82° S 05:48:09 10° E
STARLINK-1147 2.6 05:44:54 54° W 05:45:27 82° S 05:48:24 10° E
Cosmos 1743 Rocket 3.9 05:41:36 10° NNW 05:45:37 38° W 05:49:38 10° SSW
STARLINK-1146 2.6 05:45:07 53° W 05:45:42 82° S 05:48:39 10° E
STARLINK-1152 2.6 05:45:20 53° W 05:45:55 82° S 05:48:51 10° E
STARLINK-1195 2.6 05:45:33 53° W 05:46:08 82° S 05:49:05 10° E
STARLINK-1137 2.6 05:45:46 53° W 05:46:22 82° S 05:49:18 10° E
STARLINK-1142 2.6 05:46:00 52° W 05:46:36 82° S 05:49:32 10° E
STARLINK-1127 2.6 05:46:12 52° W 05:46:49 82° S 05:49:45 10° E
STARLINK-1184 2.6 05:46:25 51° W 05:47:02 82° S 05:49:58 10° E
STARLINK-1193 2.6 05:46:39 51° W 05:47:16 82° S 05:50:12 10° E
STARLINK-1194 2.6 05:46:49 51° W 05:47:27 82° S 05:50:24 10° E
COSMOS 2428 4.4 05:46:38 15° NW 05:48:53 18° NNW 05:52:43 10° NNE
Cosmos 1980 Rocket 4.4 05:45:37 10° NNW 05:49:09 17° NNE 05:52:40 10° ENE
Cosmos 1869 3.2 05:45:36 10° SSW 05:49:35 85° W 05:53:34 10° N
STARLINK-1132 2.5 05:51:17 48° W 05:51:55 77° S 05:54:40 10° ESE
Cosmos 2100 Rocket 3.9 05:45:46 10° NNW 05:51:56 64° W 05:58:01 10° S
NOSS 3-4 (A) 4.3 05:45:57 11° NW 05:52:16 54° NNE 05:59:29 10° ESE
NOSS 3-4 (C) 4.3 05:46:03 11° NW 05:52:22 54° NNE 05:59:34 10° ESE
STARLINK-1150 2.5 05:53:40 44° W 05:54:23 76° S 05:57:10 10° ESE
STARLINK-1163 2.5 05:54:51 43° W 05:55:37 76° S 05:58:23 10° ESE
STARLINK-1162 2.9 05:55:24 33° W 05:56:41 81° S 05:59:53 10° E
STARLINK-1173 2.5 05:56:42 40° W 05:57:33 75° S 06:00:19 10° ESE
STARLINK-1177 2.5 05:56:51 40° W 05:57:42 75° S 06:00:27 10° ESE
STARLINK-1167 2.5 05:57:38 38° W 05:58:31 74° S 06:01:16 10° ESE
STARLINK-1157 2.9 05:57:18 32° W 05:58:39 80° S 06:01:52 10° ESE
CZ-4B R/B 4.5 05:54:49 10° N 05:58:51 41° WNW 06:03:00 10° SW
SL-16 R/B 2.8 05:56:55 21° W 06:00:13 38° NW 06:05:31 10° NNE
FENGYUN 3A 3.6 05:55:03 10° NNE 06:00:32 87° WNW 06:05:59 10° SSW
STARLINK-1159 2.9 05:59:16 30° W 06:00:42 79° S 06:03:55 10° ESE
STARLINK-1171 2.9 06:01:24 28° W 06:02:56 79° S 06:06:08 10° ESE
STARLINK-1136 2.5 06:02:19 33° W 06:03:22 72° SSW 06:06:09 10° ESE
Cosmos 1842 Rocket 4.1 05:59:18 10° SW 06:03:27 37° WNW 06:07:39 10° N
STARLINK-1124 4.4 06:01:29 13° SSW 06:03:42 29° SSE 06:06:18 10° E
Meteor PRIRODA 3.8 06:00:58 10° N 06:04:34 47° WNW 06:08:06 10° SW
Cosmos 1000 Rocket 4.4 05:58:33 10° SSW 06:04:44 81° WNW 06:11:02 10° N
STARLINK-1155 2.9 06:03:22 27° W 06:04:58 78° S 06:08:11 10° ESE
Cosmos 1238 Rocket 3.7 05:58:45 10° NNW 06:05:04 72° W 06:10:28 10° S
Cosmos 1459 Rocket 4.0 05:59:18 10° NNW 06:05:18 56° W 06:11:23 10° S
SJ-12 3.9 06:01:45 10° N 06:05:53 68° WNW 06:09:58 10° SSW
Cosmos 2061 Rocket 3.9 06:00:01 10° NNW 06:06:19 74° W 06:12:30 10° S
STARLINK-1166 2.9 06:05:38 25° W 06:07:19 77° S 06:10:32 10° ESE
Cosmos 2369 Rocket 3.0 06:02:46 10° NW 06:07:36 29° WSW 06:12:25 10° SSW
STARLINK-1165 2.9 06:07:41 24° W 06:09:27 76° SSW 06:12:41 10° ESE
STARLINK-1094 4.5 06:07:33 10° SSW 06:10:07 28° SSE 06:12:42 10° E
Cosmos 921 Rocket 3.7 06:06:11 10° NW 06:10:12 34° WSW 06:14:08 10° SSW
STARLINK-1117 4.5 06:07:45 10° SSW 06:10:20 28° SSE 06:12:55 10° E
STARLINK-1078 4.5 06:07:59 10° SSW 06:10:33 28° SSE 06:13:08 10° E
STARLINK-1108 4.5 06:08:12 10° SSW 06:10:47 28° SSE 06:13:22 10° E
Cosmos 1633 3.0 06:07:30 10° NNW 06:10:55 38° W 06:14:18 10° SSW
STARLINK-1071 4.5 06:08:25 10° SSW 06:10:59 28° SSE 06:13:34 10° E
STARLINK-1110 4.5 06:08:39 10° SSW 06:11:14 28° SSE 06:13:49 10° E
STARLINK-1169 2.9 06:09:45 23° W 06:11:36 75° S 06:14:50 10° ESE
STARLINK-1122 4.5 06:09:06 10° SSW 06:11:41 28° SSE 06:14:17 10° E
STARLINK-1126 4.5 06:09:18 10° SSW 06:11:53 29° SSE 06:14:29 10° E
STARLINK-1082 4.5 06:09:33 10° SW 06:12:08 29° SSE 06:14:44 10° E
STARLINK-1100 4.5 06:09:45 10° SW 06:12:21 29° SSE 06:14:57 10° E
STARLINK-1083 4.4 06:09:58 10° SW 06:12:34 29° SSE 06:15:10 10° E
SL-16 R/B 4.4 06:09:39 10° NNW 06:12:35 14° N 06:15:31 10° NE
STARLINK-1125 4.4 06:10:12 10° SW 06:12:47 29° SSE 06:15:24 10° E
IDEFIX/ARIANE 42P 4.2 06:10:43 10° NNW 06:13:37 15° NW 06:14:57 14° WNW
STARLINK-1178 2.9 06:11:44 22° W 06:13:40 74° SSW 06:16:53 10° ESE
USA 116 3.6 06:11:43 10° S 06:14:40 38° W 06:17:38 10° NNW
NOAA 6 4.3 06:10:19 10° NNE 06:15:32 75° ESE 06:20:42 10° S
Helios 1A Rocket 4.1 06:11:30 10° NNE 06:15:33 49° E 06:19:34 10° S
STARLINK-1120 3.0 06:13:42 21° W 06:15:42 73° SSW 06:18:55 10° ESE
Cosmos 1725 Rocket 4.0 06:09:49 10° NNW 06:16:05 78° W 06:22:22 10° S
Cosmos 1603 3.7 06:10:34 10° SW 06:16:17 72° NW 06:21:59 10° NNE
STARLINK-1170 2.5 06:15:15 23° W 06:16:39 63° SSW 06:19:17 10° ESE
Lacrosse 5 3.5 06:15:15 15° WSW 06:16:42 16° SW 06:19:46 10° SSW
MOS 1-B 4.3 06:11:38 10° NNE 06:17:29 81° WNW 06:23:18 10° SSW
STARLINK-1131 3.0 06:15:52 20° W 06:17:59 72° S 06:21:12 10° ESE
CZ-4B DEB 4.2 06:13:20 10° NNE 06:18:51 82° WNW 06:24:19 10° SSW
STARLINK-1190 3.0 06:18:01 19° W 06:20:12 71° SSW 06:23:26 10° ESE
COSMO-SKYMED 1 3.5 06:16:30 10° SSW 06:20:13 27° W 06:23:58 10° NW
NOSS 2-1 (C) 4.1 06:18:00 17° W 06:20:17 33° NNW 06:24:12 10° NE
Cosmos 1633 Rocket 3.0 06:16:08 10° NNW 06:20:32 83° W 06:24:54 10° S
Cosmos 1943 3.2 06:15:34 10° SW 06:21:12 80° WNW 06:26:53 10° NNE
BREEZE-M DEB (TANK) 3.2 06:15:54 14° W 06:21:17 61° SSW 06:25:03 10° ESE
Cosmos 1656 Rocket 4.1 06:16:42 10° NW 06:22:03 43° WSW 06:27:22 10° S
Cosmos 1862 3.4 06:18:20 10° NNW 06:22:12 51° W 06:26:02 10° S
Cosmos 220 Rocket 4.4 06:18:47 10° NNW 06:23:00 63° ENE 06:27:10 10° SE
Cosmos 1666 Rocket 3.5 06:18:42 10° NNW 06:23:09 67° W 06:27:30 10° S
Cosmos 2123 Rocket 4.1 06:17:13 10° S 06:23:33 88° E 06:29:53 10° N
NOSS 2-1 (D) 4.2 06:22:00 16° W 06:24:24 32° NNW 06:28:18 10° NE
CZ-4C R/B 3.4 06:19:48 13° WNW 06:24:33 35° N 06:30:55 10° ENE
CZ-2C R/B 3.7 06:21:23 10° N 06:25:24 23° NW 06:29:23 10° WSW
Cosmos 2221 3.3 06:21:45 10° SW 06:25:29 29° WNW 06:29:17 10° N
CZ-4B R/B 3.3 06:21:41 10° NNE 06:27:05 81° ESE 06:32:22 10° SSW
Cosmos 1802 Rocket 4.3 06:21:03 10° NNW 06:27:13 49° W 06:33:20 10° SSW
ATLAS 2AS CENTAUR R/B 3.1 06:19:28 10° NW 06:27:19 76° NE 06:34:31 10° SE
Cosmos 1763 Rocket 3.7 06:22:31 10° NNW 06:27:53 78° ENE 06:33:12 10° SSE
Cosmos 1484 Rocket 3.8 06:26:32 10° N 06:29:54 27° WNW 06:33:17 10° WSW
ALOS 2.6 06:28:28 10° N 06:32:54 43° WNW 06:37:19 10° SW
Cosmos 489 Rocket 4.5 06:26:56 10° NNW 06:33:14 78° WSW 06:39:27 10° SSE
Cosmos 2333 Rocket 4.2 06:33:11 10° NW 06:36:09 14° N 06:39:06 10° NNE
STARLINK-1179 2.9 06:35:04 14° W 06:37:12 49° SSW 06:39:46 10° ESE
Iridium 51 4.2 06:33:37 10° S 06:37:29 84° E 06:41:07 10° N
STARLINK-1176 2.9 06:35:40 13° W 06:37:52 49° SSW 06:40:28 10° ESE
ADEOS Rocket 3.3 06:32:23 10° S 06:38:39 60° W 06:45:42 10° NNW
TELKOM 3 4.3 06:38:27 11° WSW 06:40:10 25° SSW 06:42:00 10° SE
Cosmos 192 4.3 06:35:26 10° NNW 06:40:21 73° WSW 06:45:14 10° SSE
STARLINK-1129 3.2 06:38:38 11° W 06:41:39 60° SSW 06:44:53 10° ESE
STARLINK-1134 3.2 06:40:30 11° W 06:43:36 59° SSW 06:46:49 10° ESE
CZ-2C R/B 4.1 06:40:06 10° SSE 06:44:28 65° ENE 06:48:56 10° N
Cosmos 1340 2.6 06:41:40 10° NNW 06:45:24 64° W 06:49:08 10° S
STARLINK-1135 3.3 06:42:45 10° W 06:45:56 58° SSW 06:49:09 10° ESE
SJ-7 4.5 06:42:01 10° N 06:46:15 65° WNW 06:50:25 10° SSW
Cosmos 1346 Rocket 2.7 06:42:22 10° NNW 06:46:18 78° W 06:50:11 10° S
GEOS 3 Rocket 3.9 06:42:49 10° NE 06:47:59 56° NW 06:53:10 10° WSW
STARLINK-1141 3.3 06:45:08 10° W 06:48:21 57° SSW 06:51:34 10° ESE
COSMOS 2455 3.3 06:43:16 10° NW 06:49:16 64° NE 06:55:15 10° SE
STARLINK-1140 3.3 06:47:16 10° W 06:50:30 56° SSW 06:53:42 10° ESE
CZ-4 R/B 4.3 06:48:46 10° NE 06:52:02 23° E 06:55:13 10° SE
Cosmos 2016 Rocket 4.5 06:47:05 10° NNW 06:52:46 38° W 06:58:29 10° SSW
STARLINK-1156 3.4 06:49:38 10° W 06:52:50 54° SSW 06:56:04 10° ESE
CZ-4B R/B 4.4 06:52:19 10° NNW 06:54:21 14° NW 06:56:21 10° W
STARLINK-1148 3.4 06:51:47 10° W 06:54:59 53° SSW 06:58:12 10° ESE
PAYLOAD B 4.4 06:51:21 10° N 06:56:46 52° WNW 07:02:07 10° SW
